Regional Weather Roundup
Issued by NWS

Home | Current Version | Previous Version | Graphics & Text | Print | Product List | Glossary On
Versions: 1 2 3 4 5 6 7 8 9 10 11 12 13 14 15 16 17 18 19 20 21 22 23 24 25 26 27 28 29 30 31 32 33 34 35 36 37 38 39 40 41 42 43 44 45 46 47 48 49 50
000
ASUS44 KMEG 230910
RWRTN
TENNESSEE HOURLY STATE WEATHER ROUNDUP
NATIONAL WEATHER SERVICE MEMPHIS TN
400 AM CDT MON APR 23 2018

TNZ002-004-019-021-049-052-054-088>092-231000-
WEST TENNESSEE

CITY           SKY/WX    TMP DP  RH WIND       PRES   REMARKS
MEMPHIS INTL   DRZL/FOG  56  56 100 W8        29.80R VSB 1/2
NWS MEMPHIS      N/A     56 N/A N/A MISG        N/A
JACKSON        CLOUDY    58  58 100 S9        29.77R
DYERSBURG      LGT RAIN  57 N/A N/A SW6       29.75S
SOMERVILLE       N/A     59  59 100 SW5       29.77S FOG
COVINGTON      CLOUDY    59  57  94 SW5       29.78R
UNION CITY     CLOUDY    57  57 100 NE6       29.71S FOG
BOLIVAR        CLOUDY    59  57  94 SE5       29.78S FOG
PARIS          CLOUDY    57  57 100 S13G20    29.73R
HUNTINGDON     CLOUDY    57  57 100 S10       29.74R
LEXINGTON      CLOUDY    57  57 100 S8        29.79R
SELMER         CLOUDY    57  57 100 S7        29.79R
SAVANNAH       CLOUDY    59  57  94 S5        29.80S
$$

TNZ008-025-027-028-033-062-065-066-231000-
NORTH MIDDLE TENNESSEE

CITY           SKY/WX    TMP DP  RH WIND       PRES   REMARKS
NASHVILLE      LGT RAIN  59  55  87 E17G28    29.86R
PORTLAND       CLOUDY    57  55  94 E9G16     29.88S FOG
CLARKSVILLE    CLOUDY    58  54  86 SE17G31   29.81R FOG
SMYRNA         RAIN      58  56  93 SE7       29.89R
COOKEVILLE     CLOUDY    57  54  88 E9        29.93R
LIVINGSTON     CLOUDY    55  52  88 SE9G16    29.95R
GALLATIN       CLOUDY    57  55  94 E12G18    29.92R
CROSSVILLE     LGT RAIN  52  50  93 E12G20    29.98F FOG
ROCKWOOD       CLOUDY    52  52 100 E12G21    29.98R
$$

TNZ061-075-076-078-094-096-097-231000-
SOUTH MIDDLE TENNESSEE

CITY           SKY/WX    TMP DP  RH WIND       PRES   REMARKS
LEWISBURG      CLOUDY    59  57  94 S8        29.86R
FAYETTEVILLE   CLOUDY    59  59 100 S13       29.88R FOG
TULLAHOMA      CLOUDY    59  55  88 SE14G22   29.87R
WINCHESTER     CLOUDY    59  55  88 SE17      29.89R
MCMINNVILLE    CLOUDY    59  54  82 SE12G22   29.90S
COLUMBIA       MOCLDY    59  59 100 S7        29.83R
SHELBYVILLE    CLOUDY    59  57  94 S8G14     29.87R FOG
$$

TNZ017-018-042-046-047-231000-
NORTHEAST TENNESSEE

CITY           SKY/WX    TMP DP  RH WIND       PRES   REMARKS
TRI CITIES     CLOUDY    59  48  67 E17G26    30.13S
ELIZABETHTON   CLOUDY    59  46  63 SE14G23   30.15S
$$

TNZ012-013-036-069-073-074-231000-
CENTRAL EAST TENNESSEE

CITY           SKY/WX    TMP DP  RH WIND       PRES   REMARKS
KNOXVILLE      LGT RAIN  55  54  96 N14       29.98F
OAK RIDGE      LGT RAIN  55  55 100 VRB5      30.02S
DOWNTOWN KNOXV CLOUDY    55  54  94 VRB5      30.02F
GATLINBURG     MOCLDY    57  52  82 E9        30.01F
MORRISTOWN     CLOUDY    55  50  82 E13       30.07R
JACKSBORO      CLOUDY    54  54 100 NE6       30.05F FOG
$$

TNZ083-085-099-231000-
SOUTHEAST TENNESSEE

CITY           SKY/WX    TMP DP  RH WIND       PRES   REMARKS
CHATTANOOGA    LGT RAIN  58  55  90 VRB7      29.96F FOG
DAYTON         PTSUNNY   55  55 100 N3        29.98S FOG
$$

SKY/WX REPORTED AS FAIR MEANS FEW OR NO CLOUDS BELOW
12 THOUSAND FEET.





USA.gov is the U.S. government's official web portal to all federal, state and local government web resources and services.